Weather History for Whidbey Island, WA

Change the Weather History Date:

Tuesday, July 30, 2013

  Actual Average Record
Temperature  
Mean Temperature 55 °F -  
Max Temperature 60 °F 64 °F 77 °F (2003)
Min Temperature 51 °F 49 °F 48 °F (1999)
Degree Days  
Heating Degree Days 10    
Growing Degree Days 5 (Base 50)    
Moisture  
Dew Point 52 °F    
Average Humidity 92    
Maximum Humidity 100    
Minimum Humidity 78    
Precipitation  
Precipitation 0.00 in - - ()
Sea Level Pressure  
Sea Level Pressure 30.13 in    
Wind  
Wind Speed 5 mph (West)    
Max Wind Speed 7 mph    
Max Gust Speed -    
Visibility 3 miles    
Events Fog    
Averages and records for this station are not official NWS values.
T = Trace of Precipitation, MM = Missing Value Source: NWS Daily Summary

Daily Weather History Graph

Daily Weather History Graph

Search for Another Location

Airport:

Trip Planner

Search our weather history database for the weather conditions in past years. The results will help you decide how hot, cold, wet, or windy it might be!

Date:

Astronomy

Jul. 30, 2013 Rise Set
Actual Time 5:43 AM PDT 8:49 PM PDT
Civil Twilight 5:06 AM PDT 9:26 PM PDT
Nautical Twilight 4:18 AM PDT 10:14 PM PDT
Astronomical Twilight 3:17 AM PDT 11:14 PM PDT
Moon 12:08 AM PDT (7/30) 3:13 PM PDT (7/30)
Length of Visible Light 16h 20m
Length of Day
15h 06m
Last Quarter, 40% of the Moon is Illuminated
Jul 30
Last Quarter
Aug 6
New
Aug 14
First Quarter
Aug 20
Full
Aug 28
Last Quarter

Hourly Weather History & Observations

Time (PDT) Temp. Dew Point Humidity Pressure Visibility Wind Dir Wind Speed Gust Speed Precip Events Conditions
12:56 AM 53.1 °F 51.1 °F 93% 30.05 in 6.0 mi SW 5.8 mph - N/A   Mostly Cloudy
1:13 AM 51.8 °F 51.8 °F 100% 30.04 in 1.0 mi SW 6.9 mph - N/A   Overcast
1:56 AM 52.0 °F 51.1 °F 97% 30.06 in 0.5 mi WSW 5.8 mph - N/A Fog Fog
2:56 AM 51.1 °F 51.1 °F 100% 30.07 in 0.5 mi SW 5.8 mph - N/A Fog Fog
3:56 AM 51.1 °F 51.1 °F 100% 30.08 in 0.2 mi SSW 3.5 mph - 0.00 in Fog Light Drizzle
4:56 AM 51.1 °F 51.1 °F 100% 30.09 in 0.2 mi West 4.6 mph - 0.00 in Fog Light Drizzle
5:56 AM 52.0 °F 51.1 °F 97% 30.11 in 0.2 mi WSW 4.6 mph - 0.00 in Fog Light Drizzle
6:56 AM 52.0 °F 52.0 °F 100% 30.13 in 0.2 mi SW 4.6 mph - 0.00 in Fog Light Drizzle
7:56 AM 53.1 °F 52.0 °F 96% 30.15 in 0.2 mi WSW 5.8 mph - 0.00 in Fog Light Drizzle
8:30 AM 53.6 °F 51.8 °F 94% 30.14 in 0.2 mi Calm Calm - 0.00 in   Overcast
8:56 AM 54.0 °F 53.1 °F 97% 30.16 in 0.2 mi Calm Calm - 0.00 in   Overcast
9:39 AM 53.6 °F 53.6 °F 100% 30.15 in 1.5 mi NW 3.5 mph - N/A   Overcast
9:56 AM 54.0 °F 53.1 °F 97% 30.16 in 1.5 mi WNW 3.5 mph - N/A   Overcast
10:22 AM 53.6 °F 51.8 °F 94% 30.15 in 1.5 mi WNW 4.6 mph - N/A   Overcast
10:56 AM 55.0 °F 53.1 °F 93% 30.17 in 0.5 mi West 4.6 mph - N/A   Overcast
11:33 AM 55.4 °F 53.6 °F 94% 30.16 in 0.5 mi WNW 3.5 mph - N/A   Overcast
11:56 AM 55.0 °F 53.1 °F 93% 30.17 in 0.5 mi West 4.6 mph - N/A   Overcast
12:39 PM 55.4 °F 53.6 °F 94% 30.16 in 0.5 mi West 5.8 mph - N/A   Overcast
12:56 PM 57.9 °F 54.0 °F 87% 30.17 in 0.5 mi WNW 5.8 mph - N/A   Overcast
1:12 PM 57.2 °F 53.6 °F 88% 30.15 in 2.5 mi WNW 6.9 mph - N/A   Overcast
1:56 PM 59.0 °F 53.1 °F 81% 30.16 in 2.5 mi WNW 6.9 mph - N/A   Haze
2:56 PM 57.9 °F 53.1 °F 84% 30.15 in 2.5 mi WNW 5.8 mph - N/A   Overcast
3:32 PM 57.2 °F 53.6 °F 88% 30.13 in 0.5 mi WNW 4.6 mph - N/A   Overcast
3:56 PM 55.9 °F 53.1 °F 90% 30.14 in 0.5 mi West 4.6 mph - N/A   Overcast
4:38 PM 55.4 °F 53.6 °F 94% 30.13 in 0.1 mi West 5.8 mph - N/A   Mostly Cloudy
4:56 PM 55.0 °F 52.0 °F 89% 30.14 in 0.1 mi Variable 4.6 mph - N/A   Mostly Cloudy
5:22 PM 57.2 °F 53.6 °F 88% 30.12 in 8.0 mi NW 3.5 mph - N/A   Mostly Cloudy
5:56 PM 59.0 °F 52.0 °F 78% 30.13 in 9.0 mi West 3.5 mph - N/A   Mostly Cloudy
6:56 PM 57.0 °F 52.0 °F 83% 30.13 in 10.0 mi SW 5.8 mph - N/A   Mostly Cloudy
7:56 PM 57.0 °F 52.0 °F 83% 30.13 in 10.0 mi WSW 5.8 mph - N/A   Mostly Cloudy
8:56 PM 55.0 °F 52.0 °F 89% 30.14 in 9.0 mi Calm Calm - N/A   Mostly Cloudy
9:56 PM 54.0 °F 52.0 °F 93% 30.15 in 10.0 mi WSW 3.5 mph - N/A   Scattered Clouds
10:56 PM 53.1 °F 51.1 °F 93% 30.15 in 10.0 mi WSW 4.6 mph - N/A   Scattered Clouds
11:20 PM 53.6 °F 51.8 °F 94% 30.14 in 6.0 mi SW 4.6 mph - N/A   Mostly Cloudy
11:56 PM 54.0 °F 52.0 °F 93% 30.15 in 4.0 mi Calm Calm - N/A   Overcast